Volver al catálogo

YUXING-2 09

ActivoCienciaSSO
NORAD 66998·PAYLOAD·🇨🇳 China
Este nombre de satélite aún no ha sido confirmado por fuentes oficiales.

Lanzado Dec 10, 2025 desde Jiuquan Satellite Launch Center

Loading…

Próximos Pases (próximas 24 horas)

TLE

ActualizadoSource: Space-Track

Época: Sep 14, 2026, 03:49 UTC

1 66998U 25292F   26257.15925441  .00004002  00000-0  26869-3 0  9991
2 66998  97.6283 332.3363 0015398  65.3801 294.9029 15.07288337 41854

Sigue YUXING-2 09 en tiempo real con AllMySat

Download on the App Store